Regional Weather Roundup
Issued by NWS

Home | Current Version | Previous Version | Graphics & Text | Print | Product List | Glossary On
Versions: 1 2 3 4 5 6 7 8 9 10 11 12 13 14 15 16 17 18 19 20 21 22 23 24 25 26 27 28 29 30 31 32 33 34 35 36 37 38 39 40 41 42 43 44 45 46 47 48 49 50
000
ASUS43 KLMK 230610
RWRKY
KENTUCKY REGIONAL WEATHER ROUNDUP
NATIONAL WEATHER SERVICE LOUISVILLE KY
200 AM EDT SAT JUL 23 2016

NOTE "FAIR" INDICATES FEW OR NO CLOUDS BELOW 12,000 FEET
WITH NO SIGNIFICANT WEATHER AND/OR OBSTRUCTIONS TO VISIBILITY.

KYZ001>023-026-027-061>063-070>075-230700-
WESTERN AND SOUTH CENTRAL KENTUCKY

CITY           SKY/WX    TMP DP  RH WIND       PRES   REMARKS
PADUCAH        MOCLDY    76  74  93 CALM      29.99F
HENDERSON      CLEAR     73  72  94 CALM      29.99F
OWENSBORO      CLEAR     75  73  93 CALM      30.01S
HOPKINSVILLE   PTCLDY    76  73  90 W6        30.02S
BOWLING GREEN  CLEAR     76  74  93 CALM      30.01F
GLASGOW        CLOUDY    74  74 100 CALM      30.02F
$$

KYZ024-025-028>034-038-045-046-053-230700-
NORTH CENTRAL KENTUCKY

CITY           SKY/WX    TMP DP  RH WIND       PRES   REMARKS
LOUISVILLE/SDF PTCLDY    77  71  82 CALM      30.01F
LOUISVILLE/LOU CLEAR     77  70  79 CALM      30.02F
FORT KNOX      CLEAR     71  71  99 CALM      30.01F FOG
$$

KYZ035>037-039>044-047>052-055>060-089>105-230700-
NORTHEAST KENTUCKY

CITY           SKY/WX    TMP DP  RH WIND       PRES   REMARKS
LEXINGTON      PTCLDY    73  69  87 CALM      30.05F
COVINGTON      CLEAR     74  71  91 S5        30.04F
FRANKFORT      CLEAR     73  69  87 CALM      30.03F
$$

KYZ054-064>069-076>088-106>120-230700-
SOUTHEAST KENTUCKY

CITY           SKY/WX    TMP DP  RH WIND       PRES   REMARKS
JACKSON        CLOUDY    71  68  90 CALM      30.07F
LONDON         CLOUDY    73  69  87 E5        30.06F
SOMERSET       MOCLDY    70  70 100 CALM      30.05F FOG
MIDDLESBORO    CLOUDY    76  73  91 CALM      30.07S
MONTICELLO     CLOUDY   N/A N/A N/A E8        30.05F
$$





USA.gov is the U.S. government's official web portal to all federal, state and local government web resources and services.